This is the latest recevied weather packets stored in our database for station/object KD2VWU. If no packets are shown the sender has not sent any weather packets the latest 10 day(s).
| Time | Temp. | Humidity | Pressure | Rain* | Wind** | Luminosity | Snow |
|---|---|---|---|---|---|---|---|
| 1778085536 | 17.22° C | 88% | 1005.7 hPa | 0 mm | - | - | - |
| 1778085230 | 17.78° C | 86% | 1005.8 hPa | 0 mm | - | - | - |
| 1778084925 | 17.78° C | 85% | 1006.1 hPa | 0 mm | - | - | - |
| 1778084624 | 18.33° C | 84% | 1006 hPa | 0 mm | - | - | - |
| 1778084321 | 18.33° C | 84% | 1005.8 hPa | 0 mm | - | - | - |
| 1778084018 | 18.33° C | 83% | 1005.7 hPa | 0 mm | - | - | - |
| 1778083716 | 18.89° C | 81% | 1005.7 hPa | 0 mm | - | - | - |
| 1778083412 | 18.89° C | 82% | 1005.7 hPa | 0 mm | - | - | - |
| 1778083111 | 18.89° C | 81% | 1005.9 hPa | 0 mm | - | - | - |
| 1778082807 | 18.89° C | 78% | 1005.9 hPa | 0 mm | - | - | - |
| 1778081679 | 18.89° C | 76% | 1006 hPa | 0 mm | - | - | - |
| 1778081377 | 18.89° C | 77% | 1006.4 hPa | 0 mm | - | - | - |
| 1778081074 | 19.44° C | 76% | 1006.3 hPa | 0 mm | - | - | - |
| 1778080772 | 19.44° C | 76% | 1006.3 hPa | 0 mm | - | - | - |
| 1778080469 | 19.44° C | 77% | 1006 hPa | 0 mm | - | - | - |
| 1778080167 | 19.44° C | 75% | 1006.1 hPa | 0 mm | - | - | - |
| 1778079862 | 20° C | 75% | 1006.2 hPa | 0 mm | - | - | - |
| 1778079560 | 20° C | 76% | 1006.3 hPa | 0 mm | - | - | - |
| 1778079256 | 20° C | 75% | 1006.3 hPa | 0 mm | - | - | - |
| 1778078953 | 19.44° C | 77% | 1006 hPa | 0 mm | - | - | - |
| 1778078650 | 19.44° C | 77% | 1006.2 hPa | 0 mm | - | - | - |
| 1778078349 | 19.44° C | 77% | 1006.3 hPa | 0 mm | - | - | - |
| 1778078045 | 18.89° C | 77% | 1006.1 hPa | 0 mm | - | - | - |
| 1778077743 | 18.89° C | 78% | 1006.2 hPa | 0 mm | - | - | - |
| 1778077441 | 18.89° C | 78% | 1006.4 hPa | 0 mm | - | - | - |
* Rain latest hour (hover to see other rain measurements)
** Current wind speed in m/s (hover to see current wind gust speed)